time_stamp(utc),avg(mph),gust(mph),direction(deg),12m_air_temp(f),sonic_u(cm/s),sonic_v(cm/s),sonic_w(cm/s),pressure,2m_air_temp(f),pyranometer(W/m^2)
"2020-03-16 00:02:45+00",5.9,6.9,,43.3,-127,-68,-94,1031.14,41.4,0
"2020-03-16 00:07:45+00",5.2,6.2,,43.1,-77,-146,-34,1031.09,41.7,0
"2020-03-16 00:12:45+00",6.2,6.2,,42.8,-166,-93,-85,1031.08,41.6,0
"2020-03-16 00:17:45+00",4.8,5.8,,42.5,-162,-7,-98,1031.12,41.4,0
"2020-03-16 00:22:45+00",5.9,6.9,,42.6,-317,185,-233,1031.15,41.3,0
"2020-03-16 00:27:45+00",6.9,7.9,,42.8,-392,186,-236,1031.2,41,0
"2020-03-16 00:32:45+00",7.1,7.1,,42.8,-333,99,-206,1031.23,40.8,0
"2020-03-16 00:37:45+00",7.4,8.4,,42.8,-517,350,-337,1031.15,40.7,0
"2020-03-16 00:42:45+00",7.2,8.2,,42.9,-385,139,-217,1031.16,40.6,0
"2020-03-16 00:47:45+00",6.5,7.5,,42.9,-287,67,-177,1031.14,40.7,0
"2020-03-16 00:52:45+00",6.0,7.0,,42.9,-208,-63,-90,1031.11,40.7,0
"2020-03-16 00:57:45+00",6.3,7.3,,42.7,-299,35,-145,1031.15,40.5,0
"2020-03-16 01:02:45+00",6.1,6.1,,42.7,-309,44,-145,1031.19,40.3,0
"2020-03-16 01:07:45+00",6.1,6.1,,42.7,-252,-80,-68,1031.17,40.2,0
"2020-03-16 01:12:45+00",5.6,6.6,,42.7,-245,-22,-91,1031.18,40.2,0
"2020-03-16 01:17:45+00",5.6,6.6,,42.7,-217,-78,-60,1031.16,40.2,0
"2020-03-16 01:22:45+00",6.5,7.5,,42.7,-299,-52,-81,1031.23,40.1,0
"2020-03-16 01:27:45+00",7.1,7.1,,43,-309,-47,-73,1031.14,40.1,0
"2020-03-16 01:32:45+00",6.3,6.3,,43.1,-305,12,-92,1031.1,40.2,0
"2020-03-16 01:37:45+00",6.0,7.0,,43.2,-263,-33,-63,1031.15,40.1,0
"2020-03-16 01:42:45+00",5.9,6.9,,43.1,-349,94,-143,1031.18,40.1,0
"2020-03-16 01:47:45+00",5.9,5.9,,43.1,-371,147,-165,1031.19,40.1,0
"2020-03-16 01:52:45+00",5.8,6.8,,43.1,-349,125,-175,1031.23,40.1,0
"2020-03-16 01:57:45+00",4.8,4.8,,43.1,-264,60,-109,1031.11,40.1,0
"2020-03-16 02:02:45+00",4.9,5.9,,43.2,-314,131,-155,1031.1,40.2,0
"2020-03-16 02:07:45+00",4.6,5.6,,43.2,-319,148,-161,1031.17,40.2,0
"2020-03-16 02:12:45+00",3.9,3.9,,43.3,-266,194,-182,1031.12,40.5,0
"2020-03-16 02:17:45+00",4.9,4.9,,43.3,-405,386,-316,1031.25,41.1,0
"2020-03-16 02:22:45+00",4.7,4.7,,43.3,-224,49,-117,1031.2,41.3,0
"2020-03-16 02:27:45+00",3.9,3.9,,43.2,-232,79,-104,1031.28,41.1,0
"2020-03-16 02:32:45+00",3.5,3.5,,43.2,-205,64,-88,1031.33,40.9,0
"2020-03-16 02:37:45+00",4.2,5.2,,43.2,-188,-12,-66,1031.31,40.8,0
"2020-03-16 02:42:45+00",4.1,4.1,,43.3,-164,-30,-55,1031.39,40.9,0
"2020-03-16 02:47:45+00",3.3,4.3,,43.4,-164,36,-62,1031.36,40.8,0
"2020-03-16 02:52:45+00",3.8,3.8,,43.3,-143,-36,-52,1031.36,40.8,0
"2020-03-16 02:57:45+00",3.5,4.5,,43.3,-149,-28,-46,1031.34,40.8,0
"2020-03-16 03:02:45+00",2.8,3.8,,43.4,-118,-10,-33,1031.37,40.9,0
"2020-03-16 03:07:45+00",1.9,1.9,,43.4,-68,-8,-1,1031.42,40.8,0
"2020-03-16 03:12:45+00",1.4,1.4,,43.2,-75,34,-32,1031.44,40.7,0
"2020-03-16 03:17:45+00",1.0,1.0,,43.1,-55,36,-40,1031.46,40.5,0
"2020-03-16 03:22:45+00",1.4,2.4,,43,-76,72,-22,1031.39,40.2,0
"2020-03-16 03:27:45+00",5.0,5.0,,42.1,18,139,31,1031.42,39.8,0
"2020-03-16 03:32:45+00",5.6,6.6,,41.6,8,127,55,1031.48,39.2,0
"2020-03-16 03:37:45+00",4.3,4.3,,41.6,9,170,-2,1031.55,38.8,0
"2020-03-16 03:42:45+00",4.3,4.3,,41.8,17,153,8,1031.56,38.4,0
"2020-03-16 03:47:45+00",4.6,4.6,,41.9,-3,190,-3,1031.49,38,0
"2020-03-16 03:52:45+00",5.0,6.0,,41.7,70,31,102,1031.53,37.8,0
"2020-03-16 03:57:45+00",4.9,4.9,,41.5,-22,114,56,1031.54,37.7,0
"2020-03-16 04:02:45+00",5.4,5.4,,41.3,56,56,100,1031.59,37.7,0
"2020-03-16 04:07:45+00",5.0,5.0,,41.2,80,-39,152,1031.6,37.6,0
"2020-03-16 04:12:45+00",5.6,6.6,,41.1,77,58,106,1031.51,37.5,0
"2020-03-16 04:17:45+00",6.2,6.2,,41.2,50,102,100,1031.69,37.3,0
"2020-03-16 04:22:45+00",6.8,6.8,,41.2,-19,182,64,1031.61,37,0
"2020-03-16 04:27:45+00",7.6,7.6,,41,27,135,122,1031.65,36.7,0
"2020-03-16 04:32:45+00",8.3,9.3,,40.7,-1,207,98,1031.55,36.4,0
"2020-03-16 04:37:45+00",8.4,9.4,,39.9,-30,210,89,1031.66,36.2,0
"2020-03-16 04:42:45+00",7.4,8.4,,39.4,-48,216,68,1031.66,36.2,0
"2020-03-16 04:47:45+00",5.8,6.8,,38.9,-79,230,13,1031.72,36.1,0
"2020-03-16 04:52:45+00",3.9,4.9,,38.6,-56,145,13,1031.74,36,0
"2020-03-16 04:57:45+00",4.7,5.7,,38.6,-46,169,14,1031.66,35.9,0
"2020-03-16 05:02:45+00",6.1,6.1,,38.8,-52,299,-27,1031.68,35.8,0
"2020-03-16 05:07:45+00",6.7,7.7,,38.7,-17,241,38,1031.81,35.7,0
"2020-03-16 05:12:45+00",8.2,9.2,,38.6,-158,585,-148,1031.78,35.5,0
"2020-03-16 05:17:45+00",7.3,8.3,,38.4,-193,625,-187,1031.75,35.3,0
"2020-03-16 05:22:45+00",7.8,7.8,,38.4,-73,558,-136,1031.72,35.1,0
"2020-03-16 05:27:45+00",8.2,9.2,,38.5,-264,872,-293,1031.77,35,0
"2020-03-16 05:32:45+00",9.9,9.9,,38.7,-348,1147,-396,1031.83,34.9,0
"2020-03-16 05:37:45+00",8.2,9.2,,39,-191,813,-262,1031.93,35.2,0
"2020-03-16 05:42:45+00",6.3,6.3,,38.9,-6,367,-61,1031.78,35.5,0
"2020-03-16 05:47:45+00",5.9,6.9,,38.9,51,287,-41,1031.85,35.7,0
"2020-03-16 05:52:45+00",5.8,5.8,,39,33,258,-9,1032.02,36,0
"2020-03-16 05:57:45+00",6.2,6.2,,39.2,72,272,-24,1031.96,36.1,0
"2020-03-16 06:02:45+00",5.8,6.8,,39.1,81,237,-8,1031.93,36.4,0
"2020-03-16 06:07:45+00",6.5,7.5,,39,109,264,-17,1031.97,36.4,0
"2020-03-16 06:12:45+00",7.6,7.6,,39,38,390,-43,1032.06,36.3,0
"2020-03-16 06:17:45+00",8.7,9.7,,39.1,77,486,-95,1032.05,36.2,0
"2020-03-16 06:22:45+00",7.9,8.9,,39.1,91,354,-38,1032.07,36.1,0
"2020-03-16 06:27:45+00",8.1,9.1,,38.8,-22,575,-156,1032.23,36.2,0
"2020-03-16 06:32:45+00",8.6,9.6,,38.6,-94,685,-201,1032.22,36.2,0
"2020-03-16 06:37:45+00",7.8,8.8,,38.3,-188,801,-276,1032.28,36.2,0
"2020-03-16 06:42:45+00",7.3,8.3,,38.1,-24,469,-107,1032.38,36,0
"2020-03-16 06:47:45+00",6.9,7.9,,38,59,309,-27,1032.24,35.7,0
"2020-03-16 06:52:45+00",6.2,6.2,,38,56,268,-26,1032.25,35.4,0
"2020-03-16 06:57:45+00",5.4,6.4,,38,94,209,-6,1032.22,35.5,0
"2020-03-16 07:02:45+00",6.5,7.5,,38.2,50,361,-69,1032.29,35.5,0
"2020-03-16 07:07:45+00",6.5,7.5,,38.6,83,287,-25,1032.29,35.6,0
"2020-03-16 07:12:45+00",4.9,5.9,,38.8,77,180,1,1032.4,35.7,0
"2020-03-16 07:17:45+00",4.3,4.3,,38.8,24,148,8,1032.38,35.8,0
"2020-03-16 07:22:45+00",3.0,3.0,,38.7,-10,127,-4,1032.19,35.9,0
"2020-03-16 07:27:45+00",4.1,5.1,,38.7,50,149,3,1032,36.1,0
"2020-03-16 07:32:45+00",4.1,5.1,,38.7,25,163,-4,1031.92,36.1,0
"2020-03-16 07:37:45+00",4.1,5.1,,38.4,9,175,-5,1031.76,36,0
"2020-03-16 07:42:45+00",4.0,5.0,,38.3,13,168,-3,1031.78,36,0
"2020-03-16 07:47:45+00",4.4,4.4,,38.2,-13,206,-13,1031.71,35.8,0
"2020-03-16 07:52:45+00",6.5,7.5,,38.2,25,330,-41,1031.74,35.6,0
"2020-03-16 07:57:45+00",7.9,8.9,,38.6,48,456,-96,1031.88,35.3,0
"2020-03-16 08:02:45+00",7.1,7.1,,38.7,45,341,-42,1031.92,35.4,0
"2020-03-16 08:07:45+00",8.7,10.7,,39.1,-41,607,-154,1031.97,35.3,0
"2020-03-16 08:12:45+00",7.6,9.6,,39.2,-6,498,-119,1032.07,35.7,0
"2020-03-16 08:17:45+00",11.7,12.7,,40.1,-248,1507,-622,1032.04,36.2,0
"2020-03-16 08:22:45+00",11.8,13.8,,41.7,-575,2034,-991,1031.99,37,0
"2020-03-16 08:27:45+00",12.3,14.3,,42.1,-598,2119,-1008,1031.88,38.1,0
"2020-03-16 08:32:45+00",12.4,14.4,,42,-949,2760,-1373,1031.84,38.8,0
"2020-03-16 08:37:45+00",13.7,15.7,,42.2,-885,2764,-1359,1031.89,39.2,0
"2020-03-16 08:42:45+00",11.6,12.6,,42,-516,1947,-933,1031.99,39.4,0
"2020-03-16 08:47:45+00",14.3,15.3,,42.1,-312,1845,-819,1031.81,39.5,0
"2020-03-16 08:52:45+00",12.9,16.9,,42,-329,1736,-786,1031.97,39.7,0
"2020-03-16 08:57:45+00",13.2,16.2,,42.1,-469,2034,-945,1031.99,39.9,0
"2020-03-16 09:02:45+00",15.8,17.8,,42,969,-208,342,1032.08,40,0
"2020-03-16 09:07:45+00",17.5,19.5,,41.9,1620,-1195,891,1032.21,40.2,0
"2020-03-16 09:12:45+00",13.1,15.1,,41.7,-600,2210,-1009,1032.24,40.2,0
"2020-03-16 09:17:45+00",15.1,18.1,,41.5,147,1106,-404,1032.38,40.1,0
"2020-03-16 09:22:45+00",15.7,19.7,,41.4,310,879,-263,1032.4,40,0
"2020-03-16 09:27:45+00",17.2,20.2,,41.5,1209,-513,542,1032.24,40,0
"2020-03-16 09:32:45+00",17.5,19.5,,41.3,1234,-548,539,1032.27,39.9,0
"2020-03-16 09:37:45+00",17.3,20.3,,41.3,1391,-784,690,1032.34,40,0
"2020-03-16 09:42:45+00",13.5,16.5,,41.2,-336,1780,-772,1032.37,40,0
"2020-03-16 09:47:45+00",17.0,19.0,,41.1,760,192,118,1032.27,39.8,0
"2020-03-16 09:52:45+00",16.9,19.9,,41.1,973,-115,325,1032.28,39.8,0
"2020-03-16 09:57:45+00",15.7,17.7,,41.2,436,684,-156,1032.25,39.8,0
"2020-03-16 10:02:45+00",16.5,18.5,,41.1,618,407,6,1032.19,39.8,0
"2020-03-16 10:07:45+00",15.1,19.1,,41,68,1259,-456,1032.25,39.7,0
"2020-03-16 10:12:45+00",16.4,19.4,,41.2,804,108,194,1032.22,39.9,0
"2020-03-16 10:17:45+00",17.3,20.3,,41.2,1050,-231,382,1032.29,40,0
"2020-03-16 10:22:45+00",17.9,20.9,,41.2,1344,-707,667,1032.32,40,0
"2020-03-16 10:27:45+00",17.4,21.4,,41.2,985,-154,357,1032.49,40.1,0
"2020-03-16 10:32:45+00",17.3,19.3,,41.2,999,-151,356,1032.47,40.1,0
"2020-03-16 10:37:45+00",17.9,21.9,,41.1,1126,-347,457,1032.52,40.1,0
"2020-03-16 10:42:45+00",19.1,23.1,,41.1,439,748,-104,1032.5,40.1,0
"2020-03-16 10:47:45+00",18.5,21.5,,41,1789,-1381,1051,1032.5,40.1,0
"2020-03-16 10:52:45+00",20.9,23.9,,41.1,2257,-2101,1499,1032.54,40.1,0
"2020-03-16 10:57:45+00",21.3,23.3,,41,2076,-1819,1366,1032.41,40.1,0
"2020-03-16 11:02:45+00",19.6,21.6,,41,2027,-1706,1242,1032.43,40.1,0
"2020-03-16 11:07:45+00",19.3,22.3,,41.1,1564,-1020,887,1032.54,40.2,0
"2020-03-16 11:12:45+00",22.4,27.4,,41.2,2166,-1962,1428,1032.39,40.3,0
"2020-03-16 11:17:45+00",23.2,25.2,,41.4,2944,-3198,2109,1032.57,40.6,0
"2020-03-16 11:22:45+00",19.3,22.3,,41.4,2009,-1743,1293,1032.62,40.6,0
"2020-03-16 11:27:45+00",19.2,24.2,,41.6,1792,-1458,1095,1032.56,40.8,0
"2020-03-16 11:32:45+00",17.8,21.8,,41.7,801,101,194,1032.61,40.9,0
"2020-03-16 11:37:45+00",18.9,21.9,,41.9,1959,-1758,1256,1032.67,41.2,22.9
"2020-03-16 11:47:45+00",20.6,24.6,,42,2731,-2964,1960,1032.83,41.8,46.8
"2020-03-16 11:52:45+00",22.0,26.0,,41.9,2667,-2770,1878,1032.87,42,57.1
"2020-03-16 11:57:45+00",20.6,23.6,,42,2955,-3438,2193,1032.99,42.3,66.3
"2020-03-16 12:02:45+00",22.4,26.4,,42,2652,-2823,1816,1033.01,42.5,79.7
"2020-03-16 12:07:45+00",19.9,23.9,,42,1667,-1297,954,1033.08,42.6,91.1
"2020-03-16 12:12:45+00",22.4,27.4,,41.9,2693,-2793,1926,1033.13,42.8,101.8
"2020-03-16 12:17:45+00",21.6,24.6,,41.9,1186,-536,552,1033.33,42.8,114.1
"2020-03-16 12:22:45+00",22.9,27.9,,41.8,2547,-2481,1753,1033.31,42.9,123.7
"2020-03-16 12:27:45+00",23.1,27.1,,41.6,1965,-1597,1147,1033.16,42.9,136.8
"2020-03-16 12:32:45+00",23.5,26.5,,41.6,2938,-2781,1842,1033.26,42.9,146.2
"2020-03-16 12:37:45+00",21.9,25.9,,41.8,2419,-2411,1627,1033.33,43,158.2
"2020-03-16 12:42:45+00",22.9,26.9,,41.6,3191,-3407,2180,1033.32,43,169.9
"2020-03-16 12:47:45+00",23.8,29.8,,41.6,2506,-1767,1279,1033.15,43.2,180.1
"2020-03-16 12:52:45+00",23.6,26.6,,41.6,2761,-2998,1944,1033.38,43.2,188.9
"2020-03-16 12:57:45+00",21.7,24.7,,41.9,2302,-2265,1526,1033.41,43.3,199.9
"2020-03-16 13:02:45+00",23.1,28.1,,42,3173,-3576,2330,1033.43,43.6,207.1
"2020-03-16 13:07:45+00",20.6,24.6,,42.2,2549,-2695,1789,1033.72,43.9,218.8
"2020-03-16 13:12:45+00",20.1,24.1,,42.3,1938,-1730,1294,1033.76,44.1,226.2
"2020-03-16 13:27:45+00",20.4,25.4,,42.4,2429,-2533,1681,1033.91,44.7,251.5
"2020-03-16 13:32:45+00",21.8,26.8,,42.4,1614,-1032,948,1033.74,44.7,261.5
"2020-03-16 13:42:45+00",22.3,25.3,,42.3,1440,-887,807,1033.7,44.5,287.7
"2020-03-16 13:47:45+00",21.1,24.1,,42.6,2394,-2434,1659,1033.75,44.8,276.6
"2020-03-16 13:57:45+00",19.2,23.2,,43,1619,-1259,918,1033.83,45.4,305.3
"2020-03-16 14:02:45+00",17.6,19.6,,43.5,1871,-1683,1142,1033.87,45.9,325.9
"2020-03-16 14:07:45+00",16.3,20.3,,43.9,838,-260,157,1033.88,46.6,317.9
"2020-03-16 14:12:45+00",19.0,21.0,,43.7,1822,-1711,1049,1033.95,47.1,333.5
"2020-03-16 14:17:45+00",19.1,22.1,,43.4,1735,-1464,872,1034.23,46.5,338.5
"2020-03-16 14:22:45+00",17.6,21.6,,43.5,724,48,16,1034.37,46.9,386
"2020-03-16 14:27:45+00",17.8,20.8,,43.3,1055,-330,302,1034.6,46.8,391.1
"2020-03-16 14:32:45+00",17.1,19.1,,43.7,1199,-691,445,1034.67,47.4,376.8
"2020-03-16 14:37:45+00",17.1,19.1,,43.7,1688,-1424,905,1034.61,47.2,416.6
"2020-03-16 14:42:45+00",18.8,20.8,,43.3,415,689,-362,1034.58,46.8,68.9
"2020-03-16 14:47:45+00",17.9,20.9,,43.1,426,694,-330,1034.6,47.2,370.6
"2020-03-16 14:52:45+00",15.9,17.9,,43.5,455,492,-185,1034.58,47.3,165.4
"2020-03-16 14:57:45+00",17.6,20.6,,43.2,683,210,27,1034.73,46.9,291.1
"2020-03-16 15:02:45+00",18.2,20.2,,43.4,1439,-1076,694,1035.06,46.6,492.2
"2020-03-16 15:07:45+00",18.0,20.0,,43.1,1318,-835,533,1034.74,47.4,405.2
"2020-03-16 15:12:45+00",16.7,18.7,,43.6,1632,-1449,907,1034.72,47.6,514.2
"2020-03-16 15:17:45+00",18.7,20.7,,43.4,2045,-2002,1269,1034.56,47.6,456.2
"2020-03-16 15:22:45+00",14.7,16.7,,44.2,1028,-572,423,1034.54,48.2,481.6
"2020-03-16 15:27:45+00",17.0,19.0,,43.9,1289,-939,590,1034.59,48.5,356.1
"2020-03-16 15:32:45+00",16.8,18.8,,43.2,274,878,-421,1034.72,47.7,240.7
"2020-03-16 15:37:45+00",15.5,19.5,,44,1057,-597,409,1034.81,47.7,348.9
"2020-03-16 15:42:45+00",15.4,19.4,,43.4,758,3,157,1034.79,47.4,358.4
"2020-03-16 15:47:45+00",17.9,18.9,,43.5,1403,-962,607,1034.72,47.8,305.7
"2020-03-16 15:52:45+00",14.9,16.9,,43.5,271,724,-305,1034.85,47.5,254.2
"2020-03-16 15:57:45+00",15.8,17.8,,43.5,847,-198,195,1034.85,47.8,526.2
"2020-03-16 16:02:45+00",17.3,19.3,,43.5,1027,-453,287,1034.74,48.4,479.4
"2020-03-16 16:07:45+00",17.3,21.3,,43.4,1089,-523,378,1034.74,48,436.1
"2020-03-16 16:12:45+00",17.4,20.4,,43.6,1428,-1102,720,1034.73,48.1,491.3
"2020-03-16 16:17:45+00",15.0,17.0,,43.4,570,196,-44,1034.68,48.2,481.9
"2020-03-16 16:22:45+00",16.1,18.1,,43.7,1384,-1062,693,1034.8,48.6,493.1
"2020-03-16 16:27:45+00",17.3,19.3,,43.3,717,96,37,1034.77,48.2,464.7
"2020-03-16 16:32:45+00",18.0,21.0,,43.3,1078,-356,346,1034.71,48.1,343.3
"2020-03-16 16:37:45+00",17.8,19.8,,43,233,1103,-479,1034.74,48.2,459.4
"2020-03-16 16:42:45+00",16.8,19.8,,43.2,47,1064,-625,1034.71,48,488.4
"2020-03-16 16:47:45+00",16.7,19.7,,43.5,673,114,-35,1034.67,47.9,453.1
"2020-03-16 16:52:45+00",16.0,19.0,,43.6,753,-16,96,1034.59,48.2,511.2
"2020-03-16 16:57:45+00",15.3,17.3,,43.3,194,665,-413,1034.57,47.3,479.1
"2020-03-16 17:02:45+00",15.9,18.9,,42.8,-12,1245,-662,1034.56,47.7,454.8
"2020-03-16 17:07:45+00",16.1,19.1,,43.2,196,812,-471,1034.3,47.6,427.4
"2020-03-16 17:12:45+00",16.9,18.9,,43.2,136,950,-554,1034.43,47.2,458.7
"2020-03-16 17:17:45+00",15.5,18.5,,43.1,533,218,-58,1034.15,47.4,386.1
"2020-03-16 17:22:45+00",17.2,20.2,,43,1049,-443,377,1033.79,47.6,493.1
"2020-03-16 17:27:45+00",15.4,17.4,,43.5,879,-329,265,1033.71,47.7,452.9
"2020-03-16 17:32:45+00",16.0,18.0,,43.3,445,421,-206,1033.6,47.5,494.7
"2020-03-16 17:37:45+00",17.7,18.7,,43,629,291,-147,1033.49,47.7,463
"2020-03-16 17:42:45+00",17.9,20.9,,43.1,316,803,-426,1033.4,47.6,470.2
"2020-03-16 17:47:45+00",17.0,19.0,,43,710,84,-27,1033.49,47.3,366.2
"2020-03-16 17:52:45+00",15.9,18.9,,43.2,801,-150,159,1033.41,47,377.1
"2020-03-16 17:57:45+00",17.3,19.3,,42.8,850,-82,116,1033.44,46.9,418.1
"2020-03-16 18:02:45+00",18.9,20.9,,43,318,838,-465,1033.43,46.9,385.6
"2020-03-16 18:07:45+00",17.6,18.6,,43,673,186,-97,1033.41,46.6,412.6
"2020-03-16 18:12:45+00",17.9,19.9,,43.2,437,575,-305,1033.17,46.3,371.9
"2020-03-16 18:17:45+00",19.1,22.1,,43,911,-235,163,1033.09,46.7,371.1
"2020-03-16 18:22:45+00",17.1,18.1,,43,-1,1221,-691,1033.05,46.9,404.8
"2020-03-16 18:27:45+00",17.6,19.6,,42.8,2001,-2006,1239,1032.98,47,368.5
"2020-03-16 18:32:45+00",15.9,19.9,,43.2,378,450,-206,1033.12,46.8,328.2
"2020-03-16 18:37:45+00",18.4,20.4,,43.1,1387,-1010,580,1033.06,46.6,224.3
"2020-03-16 18:42:45+00",18.1,22.1,,43.1,-96,1344,-805,1033.04,46.5,344.2
"2020-03-16 18:47:45+00",17.9,19.9,,42.9,-496,2090,-1197,1033.13,46.2,340.3
"2020-03-16 18:52:45+00",17.5,19.5,,42.9,-107,1428,-803,1033.01,45.9,341.3
"2020-03-16 18:57:45+00",16.5,18.5,,42.9,1903,-1894,1165,1033.06,46,313.4
"2020-03-16 19:02:45+00",17.3,19.3,,43,-286,1671,-963,1032.89,46.4,374.5
"2020-03-16 19:07:45+00",17.1,19.1,,43,-312,1739,-963,1033.05,46.1,179.6
"2020-03-16 19:12:45+00",18.3,20.3,,42.6,938,-153,123,1032.89,45.5,125.1
"2020-03-16 19:17:45+00",17.1,18.1,,42.7,-1289,3362,-1943,1032.72,45,185.2
"2020-03-16 19:22:45+00",17.6,20.6,,43,1571,-1274,773,1032.64,45.7,291.4
"2020-03-16 19:27:45+00",17.9,20.9,,42.9,1018,-391,260,1032.67,45.5,147.6
"2020-03-16 19:32:45+00",17.8,19.8,,42.7,292,865,-469,1032.6,45.2,148.7
"2020-03-16 19:37:45+00",15.7,18.7,,43.1,-269,1562,-858,1032.62,44.9,156.2
"2020-03-16 19:42:45+00",16.6,18.6,,42.7,1244,-767,476,1032.65,44.8,97
"2020-03-16 19:47:45+00",15.3,16.3,,42.7,-832,2511,-1398,1032.74,44.6,101.5
"2020-03-16 19:52:45+00",16.3,18.3,,42.5,-258,1618,-882,1032.54,44.5,89.7
"2020-03-16 19:57:45+00",17.7,20.7,,42.7,582,376,-194,1032.63,44.4,77.5
"2020-03-16 20:02:45+00",17.9,20.9,,42.8,232,880,-483,1032.48,44.3,116.1
"2020-03-16 20:07:45+00",19.0,21.0,,42.8,550,438,-269,1032.3,44.4,127.8
"2020-03-16 20:12:45+00",17.7,20.7,,42.9,-512,2052,-1198,1032.16,44.5,110.8
"2020-03-16 20:17:45+00",20.2,22.2,,42.7,533,527,-337,1031.9,44.3,87.9
"2020-03-16 20:22:45+00",17.2,19.2,,42.8,252,861,-483,1031.95,44.3,81.2
"2020-03-16 20:27:45+00",16.8,18.8,,42.9,-506,2039,-1177,1031.72,44.2,73.7
"2020-03-16 20:32:45+00",18.8,22.8,,43.1,84,1207,-675,1031.61,44.3,60
"2020-03-16 20:37:45+00",20.0,21.0,,42.7,873,7,-6,1031.54,44.1,63.8
"2020-03-16 20:42:45+00",18.5,21.5,,42.8,-270,1714,-1004,1031.53,44,62.8
"2020-03-16 20:47:45+00",19.6,21.6,,42.7,110,1179,-700,1031.37,43.9,57.9
"2020-03-16 20:52:45+00",20.5,22.5,,42.7,656,391,-206,1031.42,43.8,43.9
"2020-03-16 20:57:45+00",18.0,20.0,,42.8,-24,1335,-753,1031.27,43.7,30.7
"2020-03-16 21:02:45+00",19.0,21.0,,42.8,-159,1632,-930,1031.17,43.8,30.5
"2020-03-16 21:07:45+00",20.5,22.5,,42.5,342,862,-524,1030.96,43.4,30.4
"2020-03-16 21:12:45+00",19.1,22.1,,42.7,-400,2029,-1166,1030.82,43.6,50.1
"2020-03-16 21:17:45+00",15.4,19.4,,42.8,-843,2349,-1337,1030.88,43.6,45
"2020-03-16 21:22:45+00",19.2,22.2,,42.7,18,1365,-757,1030.9,43.6,43.1
"2020-03-16 21:27:45+00",19.1,21.1,,42.7,554,472,-264,1031.11,43.5,32.5
"2020-03-16 21:32:45+00",19.5,21.5,,42.6,-515,2175,-1284,1031.1,43.5,19.6
"2020-03-16 21:37:45+00",17.8,21.8,,42.6,-1145,3065,-1799,1031.1,43.4,15.6
"2020-03-16 21:42:45+00",18.0,20.0,,42.8,-1036,2838,-1690,1031.18,43.5,12.2
"2020-03-16 21:47:45+00",18.4,21.4,,42.7,-1183,3091,-1831,1031.18,43.4,7.4
"2020-03-16 21:52:45+00",18.2,20.2,,42.7,-1200,3176,-1864,1031.21,43.2,3.6
"2020-03-16 21:57:45+00",16.8,18.8,,42.6,-1456,3496,-2067,1031.11,43,1.3
"2020-03-16 22:02:45+00",18.4,20.4,,42.7,-643,2425,-1392,1031.11,43.2,0.1
"2020-03-16 22:07:45+00",18.8,21.8,,42.7,-1034,2953,-1727,1030.83,43.2,0.7
"2020-03-16 22:12:45+00",18.5,20.5,,42.7,-1419,3433,-2049,1030.78,43.1,0
"2020-03-16 22:17:45+00",17.7,20.7,,42.8,-910,2739,-1585,1030.75,43.1,0
"2020-03-16 22:22:45+00",17.7,20.7,,42.8,-979,2812,-1655,1030.63,43.1,0
"2020-03-16 22:27:45+00",18.8,20.8,,42.7,-1175,3194,-1867,1030.65,43,0
"2020-03-16 22:32:45+00",18.6,21.6,,42.8,-792,2598,-1510,1030.83,43,0
"2020-03-16 22:37:45+00",18.6,20.6,,42.8,-734,2380,-1415,1030.68,43,0
"2020-03-16 22:42:45+00",17.0,19.0,,42.9,-1457,3604,-2069,1030.56,43,0
"2020-03-16 22:47:45+00",18.2,22.2,,42.8,-417,2020,-1130,1030.6,43,0
"2020-03-16 22:52:45+00",17.1,20.1,,42.8,-714,2433,-1398,1030.75,43,0
"2020-03-16 22:57:45+00",17.3,20.3,,42.9,-1133,3112,-1805,1030.6,43,0
"2020-03-16 23:02:45+00",19.7,22.7,,42.9,-713,2433,-1458,1030.44,43,0
"2020-03-16 23:07:45+00",17.9,21.9,,42.9,-1232,3109,-1852,1030.53,42.9,0
"2020-03-16 23:12:45+00",18.0,22.0,,42.9,-1294,3199,-1893,1030.36,43,0
"2020-03-16 23:17:45+00",17.0,19.0,,43,-1281,3254,-1895,1030.39,43,0
"2020-03-16 23:22:45+00",21.2,23.2,,43,-778,2550,-1571,1030.42,43,0
"2020-03-16 23:27:45+00",16.5,20.5,,43,-1252,3059,-1808,1030.65,43,0
"2020-03-16 23:32:45+00",16.4,18.4,,43.1,-1235,3134,-1819,1030.75,43.1,0
"2020-03-16 23:37:45+00",17.8,19.8,,43.1,-1131,3016,-1777,1030.74,43.1,0
"2020-03-16 23:42:45+00",17.6,20.6,,43.1,-1092,2929,-1714,1030.6,43.1,0
"2020-03-16 23:47:45+00",20.8,22.8,,43.1,-1251,3227,-1962,1030.39,43.1,0
"2020-03-16 23:52:45+00",17.6,20.6,,43.1,-1379,3464,-1990,1030.28,43.1,0
"2020-03-16 23:57:45+00",19.7,22.7,,43,-1240,3228,-1920,1030.28,43,0
